Simultaneous Nadir Overpasses (SNOs) Predictions

Prediction of SNOs between FY3D and AQUA Satellite Orbit:

Table of predicted SNOs for the next 14.0 days since TLE Epoch: 10/3/2025
Index Date (FY3D) Time (FY3D) Lat,Lon (FY3D) SZA (FY3D ) Date (AQUA) Time (AQUA) Lat,Lon (AQUA) SZA (AQUA ) Distance(km) Time Diff (sec)
1 10/04/2025 20:41:32 -79.54, 40.64 95.77 10/04/2025 20:42:04 -79.53, 40.78 95.78 3.03 32
2 10/04/2025 21:32:06 79.20,-149.10 83.86 10/04/2025 21:31:13 79.21,-149.24 83.87 3.03 53
3 10/07/2025 06:12:09 -79.46,-101.24 94.94 10/07/2025 06:12:25 -79.46,-101.18 94.95 1.24 16
4 10/07/2025 07:02:47 79.25, 67.91 84.83 10/07/2025 07:01:37 79.25, 67.98 84.83 1.54 70
5 10/09/2025 15:42:47 -79.42, 116.54 94.08 10/09/2025 15:42:45 -79.41, 116.61 94.09 1.65 2
6 10/12/2025 00:22:46 79.57, 165.28 86.98 10/12/2025 00:23:51 79.57, 165.30 86.97 0.44 65
7 10/12/2025 01:13:23 -79.32, -25.22 93.29 10/12/2025 01:13:02 -79.33, -25.32 93.28 2.14 21
8 10/14/2025 09:53:23 79.52, 23.18 87.81 10/14/2025 09:54:07 79.52, 23.14 87.81 1.02 44
9 10/14/2025 10:44:02 -79.33,-167.86 92.39 10/14/2025 10:43:19 -79.32,-167.74 92.40 2.72 43
10 10/16/2025 19:24:00 79.47,-119.00 88.64 10/16/2025 19:24:21 79.47,-119.00 88.64 0.30 21



Historial Predications of SNOs between FY3D and AQUA
